INFORMAÇÕES DO AERODROMO
Icao Aerodromo SBMG Nome do Aerodromo Regional de Maringá - Sílvio Nane Junior Airport Cidade Maringá
Código GPS SBMG Elevação Média 1788 ft Tipo de Aerodromo Aeroporto Médio Porte

INFORMAÇÃO DE PISTA
Pista 9 Comprimento da Pista 6890 ft Largura da Pista 148 ft
Elevação da Pista 0 ft Distância de Area de Escape da Pista 0 ft Orientação da Pista 0
Pista 27 Comprimento da Pista 6890 ft Largura da Pista 148 ft
Elevação da Pista 0 ft Distância de Area de Escape da Pista 0 ft Orientação da Pista 0

FREQUÊNCIAS DO AERODROMO
Tipo AFIS Nome RDO Frequência 131.95 MHZ

INFORMAÇÕES DE NAVEGAÇÃO PRÓXIMO AO AERODROMO

Informações de Meteorologia(METAR atual)
METAR DE SBMG
ADDS - METARS form results

(0249 UTC 23 January 2019)
Data provider http://aviationweather.gov/metar/data/
 
METAR text: SBMG 230200Z 09007KT CAVOK 27/23 Q1015
Conditions at: SBMG (MARINGA , BR) observed 0200 UTC 23 January 2019
Temperature: 27.0°C (81°F)
Dewpoint: 23.0°C (73°F) [RH = 79%]
Pressure (altimeter): 29.97 inches Hg (1015.0 mb)
Winds: from the E (90 degrees) at 8 MPH (7 knots; 3.6 m/s)
Visibility: 6 or more miles (10+ km)
Ceiling: ceiling and visibility are OK
Clouds: unknown
Weather: no significant weather observed at this time

MAPA DO AERODROMO


Desenvolvido por Virtual Airlines Manager




Modificado por Servidor Brasil Amigos